Location: Unspecified
(0.0000°N, 0.0000°E)
Time: 08:51:28
(UTC+02:00)

Cosmos 1340 - Visible Passes

Search period start: 28 September 2016 00:00
Search period end: 08 October 2016 00:00
Orbit: 507 x 512 km, 81.2° (Epoch: 25 September)

Date Brightness Start Highest point End Pass type
(mag) Time Alt. Az. Time Alt. Az. Time Alt. Az.
28 Sep 4.7 06:18:15 10° SSE 06:21:35 29° E 06:24:54 10° NNE visible
29 Sep 5.2 06:01:39 10° SSE 06:04:37 22° E 06:07:34 10° NE visible
30 Sep 5.6 05:45:14 10° SE 05:47:39 16° E 05:50:03 10° NE visible
30 Sep 4.4 07:21:23 10° WSW 07:23:05 13° W 07:24:47 10° WNW visible
01 Oct 5.9 05:29:12 10° ESE 05:30:41 12° E 05:32:10 10° ENE visible
01 Oct 4.1 07:03:35 10° SW 07:06:07 17° W 07:08:39 10° NW visible
02 Oct 4.9 06:52:00 11° NNW 06:52:00 11° NNW 06:52:11 10° NNW visible
